Volver al catálogo

KUIPER-00059

ActivoComunicacionesLEO
NORAD 64519·PAYLOAD·🇺🇸 United States

Lanzado Jun 23, 2025 desde Cape Canaveral Space Force Station

Loading…

Próximos Pases (próximas 24 horas)

TLE

ActualizadoSource: CelesTrak SupGP

Época: Sep 14, 2026, 16:31 UTC

1 64519C 25134V   26257.68866898 -.00050884  00000+0 -66593-2 0  2575
2 64519  51.8983 104.8308 0000600 104.1358  49.9719 14.79992332    12

Sigue KUIPER-00059 en tiempo real con AllMySat

Download on the App Store